Home > Weather > Hobart > Past weeks

Flag for Australia Past Weather in Hobart, Tasmania, Australia — Yesterday and Last 2 Weeks

Now
45 °F

Partly sunny.


Feels Like: 39 °F
Forecast: 37 / 51 °F
Wind: 12 mph from West

Location: Hobart Airport

Current Time: Aug 28, 2016 at 6:47:37 AM

Latest Report: Aug 28, 2016 at 6:00 AM


Visibility: N/A

Pressure: 29.92 "Hg

Humidity: 61%

Dew Point: 32 °F

Location of HobartLocation

Past Weather in Hobart — Graph

°F

Hobart Temperature Yesterday

Maximum temperature yesterday: 59 °F (at 2:00 PM)
Minimum temperature yesterday: 46 °F (at 4:00 AM)
Average temperature yesterday: 53 °F

High & Low Weather Summary for the Past Weeks

 TemperatureHumidityPressure
High64 °F (Aug 16, 2:30 PM)94% (Aug 17, 3:00 AM)30.24 "Hg (Aug 17, 3:00 AM)
Low34 °F (Aug 18, 6:00 AM)31% (Aug 22, 2:00 PM)29.47 "Hg (Aug 19, 4:00 PM)
Average50 °F62%29.87 "Hg
* Reported Aug 13 5:00 AM — Aug 28 5:30 AM, Hobart, Weather by CustomWeather, © 2016

Note: Actual official high and low records may vary slightly from our data, if they occured in-between our weather recording intervals... More about our weather records

Advertising

Hobart Weather History for the Previous 24 Hours

Scroll right to see more
 ConditionsComfort  
Time TempWeatherWind HumidityBarometerVisibility
5:30 AM
Sun, Aug 28
43 °FPassing clouds.13 mph71%29.89 "HgN/A
5:00 AM45 °FPassing clouds.10 mph66%29.86 "HgN/A
4:00 AM45 °FPassing clouds.14 mph71%29.83 "HgN/A
3:00 AM45 °FPassing clouds.17 mph76%29.80 "HgN/A
2:04 AM46 °FScattered showers. Passing clouds.17 mph71%29.80 "HgN/A
1:30 AM50 °FSprinkles. Passing clouds.15 mph67%29.74 "HgN/A
1:00 AM50 °FPartly cloudy.15 mph71%29.71 "HgN/A
12:30 AM50 °FSprinkles. Partly cloudy.17 mph71%29.68 "HgN/A
12:00 AM52 °FSprinkles. Passing clouds.20 mph67%29.68 "HgN/A
11:59 PM
Sat, Aug 27
52 °FSprinkles. Passing clouds.18 mph67%29.68 "HgN/A
11:30 PM52 °FSprinkles. Partly cloudy.12 mph67%29.65 "HgN/A
11:00 PM54 °FSprinkles. Passing clouds.13 mph51%29.65 "HgN/A
10:30 PM52 °FPassing clouds.9 mph54%29.65 "HgN/A
10:00 PM54 °FPassing clouds.14 mph54%29.68 "HgN/A
9:00 PM52 °FPartly cloudy.14 mph58%29.68 "HgN/A
8:00 PM52 °FPassing clouds.18 mph58%29.71 "HgN/A
7:00 PM54 °FPartly cloudy.15 mph54%29.74 "HgN/A
6:30 PM54 °FPartly cloudy.15 mph54%29.74 "HgN/A
6:00 PM54 °FPartly cloudy.15 mph54%29.74 "HgN/A
5:00 PM54 °FSprinkles. Partly cloudy.23 mph58%29.74 "HgN/A
4:30 PM55 °FPartly sunny.22 mph51%29.74 "HgN/A
4:00 PM57 °FPartly sunny.21 mph48%29.74 "HgN/A
3:30 PM57 °FPartly sunny.21 mph44%29.74 "HgN/A
3:00 PM57 °FPartly sunny.22 mph48%29.74 "HgN/A
2:30 PM57 °FBroken clouds.23 mph44%29.74 "HgN/A
2:00 PM59 °FPartly sunny.24 mph42%29.74 "HgN/A
1:00 PM57 °FPartly sunny.23 mph44%29.77 "HgN/A
12:00 PM55 °FPartly sunny.18 mph51%29.80 "HgN/A
11:30 AM55 °FPartly sunny.20 mph55%29.80 "HgN/A
11:00 AM55 °FBroken clouds.22 mph51%29.83 "HgN/A
10:00 AM55 °FBroken clouds.17 mph51%29.83 "HgN/A
9:30 AM55 °FPartly sunny.13 mph51%29.86 "HgN/A
9:00 AM55 °FPartly sunny.12 mph55%29.86 "HgN/A
8:00 AM52 °FScattered clouds.17 mph58%29.86 "HgN/A
7:30 AM50 °FPassing clouds.16 mph62%29.86 "HgN/A
7:00 AM50 °FPassing clouds.15 mph62%29.86 "HgN/A
6:00 AM48 °FPartly sunny.14 mph66%29.86 "HgN/A
Weather by CustomWeather, © 2016

See weather overviewHow to use our weather pages